Location: Huberhof
(49.2050°N, 7.4980°E)
Time: 01:07:58
(UTC+00:00)

Cosmos 1992 Rocket - Pass Details

Date: 29 October 2020
Orbit: 759 x 765 km, 74.0° (Epoch: 26 November)

Event Time Altitude Azimuth Distance (km) Brightness Sun altitude
Rises 17:32:23 0° 182° (S) 3,206 7.3 -13.4°
Reaches altitude 10° 17:34:49 10° 177° (S) 2,285 6.5 -13.8°
Maximum altitude 17:39:44 46° 105° (ESE) 1,023 4.2 -14.6°
Drops below altitude 10° 17:44:41 10° 34° (NE) 2,300 6.1 -15.4°
Enters shadow 17:45:23 - 32° (NNE) 2,561 6.4 -15.5°
